When you browse on this site, cookies collect data to enhance your experience and personalize the content and advertising you see.
Visit our Privacy Policy to learn more. By continuing to use the site, you agree to this use of cookies and data.
  • In Österreich
  • Länderverzeichnis
  • Für 7 Tage
  • Wassertemperatur
  • Satellitenkarten
  • Wetterkarte
  • News
  • Widgets
  • user-avatar
    Anmelden

    Stündliche Wetter Krakow

    Heute, 25 März, Montag

    Zeit Temperatur Niederschläge Wind Luftdruck Luftfeuchtigkeit
    00:00 +9°C° 0.2 mm 1 m/S 743 mmHg 64%
    01:00 +8°C° 0 mm 1 m/S 742 mmHg 68%
    02:00 +8°C° 0.2 mm 1 m/S 742 mmHg 71%
    03:00 +8°C° 0.2 mm 1 m/S 741 mmHg 74%
    04:00 +7°C° 0.2 mm 2 m/S 741 mmHg 77%
    05:00 +7°C° 0 mm 2 m/S 741 mmHg 76%
    06:00 +7°C° 0 mm 3 m/S 740 mmHg 75%
    07:00 +7°C° 0 mm 3 m/S 740 mmHg 73%
    08:00 +8°C° 0.1 mm 3 m/S 740 mmHg 66%
    09:00 +8°C° 0.1 mm 4 m/S 740 mmHg 59%
    10:00 +8°C° 0.1 mm 4 m/S 739 mmHg 52%
    11:00 +10°C° 0.1 mm 4 m/S 739 mmHg 50%
    12:00 +9°C° 0.1 mm 5 m/S 738 mmHg 48%
    13:00 +9°C° 0.1 mm 5 m/S 738 mmHg 46%
    14:00 +9°C° 0.4 mm 5 m/S 738 mmHg 49%
    15:00 +8°C° 0.4 mm 5 m/S 738 mmHg 52%
    16:00 +7°C° 0.4 mm 5 m/S 738 mmHg 55%
    17:00 +7°C° 0.1 mm 5 m/S 738 mmHg 59%
    18:00 +6°C° 0.1 mm 4 m/S 739 mmHg 63%
    19:00 +5°C° 0.1 mm 4 m/S 739 mmHg 67%
    20:00 +4°C° 0 mm 4 m/S 740 mmHg 70%
    21:00 +4°C° 0 mm 3 m/S 741 mmHg 74%
    22:00 +3°C° 0 mm 3 m/S 741 mmHg 77%
    23:00 +3°C° 0.2 mm 4 m/S 742 mmHg 78%

    Morgen, 26 März, Dienstag

    Zeit Temperatur Niederschläge Wind Luftdruck Luftfeuchtigkeit
    00:00 +3°C° 0.2 mm 4 m/S 743 mmHg 79%
    01:00 +3°C° 0.2 mm 4 m/S 743 mmHg 80%
    02:00 +3°C° 0.2 mm 4 m/S 743 mmHg 82%
    03:00 +3°C° 0.2 mm 4 m/S 744 mmHg 84%
    04:00 +1°C° 0.2 mm 4 m/S 744 mmHg 87%
    05:00 +1°C° 0 mm 4 m/S 745 mmHg 86%
    06:00 +1°C° 0 mm 4 m/S 745 mmHg 85%
    07:00 +1°C° 0 mm 4 m/S 746 mmHg 84%
    08:00 +2°C° 0 mm 5 m/S 746 mmHg 79%
    09:00 +3°C° 0 mm 5 m/S 746 mmHg 73%
    10:00 +3°C° 0 mm 5 m/S 746 mmHg 68%
    11:00 +4°C° 0 mm 6 m/S 746 mmHg 65%
    12:00 +5°C° 0 mm 6 m/S 746 mmHg 61%
    13:00 +5°C° 0 mm 6 m/S 745 mmHg 58%
    14:00 +5°C° 0 mm 7 m/S 745 mmHg 56%
    15:00 +6°C° 0 mm 7 m/S 745 mmHg 53%
    16:00 +6°C° 0 mm 8 m/S 744 mmHg 51%
    17:00 +5°C° 0.1 mm 7 m/S 745 mmHg 56%
    18:00 +4°C° 0.1 mm 7 m/S 745 mmHg 61%
    19:00 +3°C° 0.1 mm 7 m/S 745 mmHg 66%
    20:00 +3°C° 0.2 mm 6 m/S 746 mmHg 68%
    21:00 +2°C° 0.2 mm 6 m/S 747 mmHg 71%
    22:00 +2°C° 0.2 mm 6 m/S 747 mmHg 73%
    23:00 +1°C° 0.1 mm 4 m/S 748 mmHg 72%

    übermorgen, 27 März, Mittwoch

    Zeit Temperatur Niederschläge Wind Luftdruck Luftfeuchtigkeit
    00:00 +1°C° 0.1 mm 3 m/S 748 mmHg 72%
    01:00 +1°C° 0.1 mm 2 m/S 748 mmHg 71%
    02:00 +1°C° 0 mm 2 m/S 749 mmHg 71%
    03:00 -1°C° 0 mm 2 m/S 749 mmHg 71%
    04:00 -1°C° 0 mm 2 m/S 749 mmHg 71%
    05:00 -1°C° 0 mm 2 m/S 749 mmHg 69%
    06:00 +1°C° 0 mm 2 m/S 750 mmHg 67%
    07:00 +2°C° 0 mm 2 m/S 750 mmHg 66%
    08:00 +2°C° 0 mm 3 m/S 750 mmHg 60%
    09:00 +4°C° 0 mm 3 m/S 750 mmHg 54%
    10:00 +5°C° 0 mm 4 m/S 751 mmHg 48%
    11:00 +6°C° 0 mm 4 m/S 751 mmHg 50%
    12:00 +6°C° 0 mm 4 m/S 750 mmHg 51%
    13:00 +7°C° 0 mm 4 m/S 750 mmHg 52%
    14:00 +7°C° 0 mm 4 m/S 750 mmHg 53%
    15:00 +7°C° 0 mm 4 m/S 750 mmHg 54%
    16:00 +7°C° 0 mm 4 m/S 750 mmHg 55%
    17:00 +8°C° 0.1 mm 3 m/S 750 mmHg 62%
    18:00 +7°C° 0.1 mm 3 m/S 750 mmHg 70%
    19:00 +6°C° 0.1 mm 2 m/S 751 mmHg 77%
    20:00 +6°C° 0.3 mm 2 m/S 751 mmHg 80%
    21:00 +6°C° 0.3 mm 2 m/S 751 mmHg 83%
    22:00 +6°C° 0.3 mm 2 m/S 751 mmHg 86%
    23:00 +6°C° 0.1 mm 2 m/S 752 mmHg 87%

    28 März, Donnerstag

    Zeit Temperatur Niederschläge Wind Luftdruck Luftfeuchtigkeit
    00:00 +6°C° 0.1 mm 2 m/S 752 mmHg 88%
    01:00 +6°C° 0.1 mm 2 m/S 752 mmHg 90%
    02:00 +7°C° 0.1 mm 1 m/S 752 mmHg 90%
    03:00 +6°C° 0.1 mm 1 m/S 752 mmHg 91%
    04:00 +6°C° 0.1 mm 1 m/S 752 mmHg 92%
    05:00 +6°C° 0.2 mm 2 m/S 752 mmHg 91%
    06:00 +6°C° 0.2 mm 2 m/S 752 mmHg 91%
    07:00 +6°C° 0.2 mm 2 m/S 752 mmHg 90%
    08:00 +7°C° 0.1 mm 2 m/S 752 mmHg 87%
    09:00 +7°C° 0.1 mm 2 m/S 753 mmHg 83%
    10:00 +8°C° 0.1 mm 2 m/S 753 mmHg 80%
    11:00 +9°C° 0.3 mm 2 m/S 753 mmHg 75%
    12:00 +9°C° 0.3 mm 2 m/S 753 mmHg 71%
    13:00 +10°C° 0.3 mm 3 m/S 753 mmHg 66%
    14:00 +10°C° 0.3 mm 2 m/S 753 mmHg 66%
    15:00 +10°C° 0.3 mm 2 m/S 753 mmHg 66%
    16:00 +10°C° 0.3 mm 2 m/S 753 mmHg 66%
    17:00 +10°C° 0 mm 1 m/S 753 mmHg 71%
    18:00 +9°C° 0 mm 1 m/S 753 mmHg 77%
    19:00 +8°C° 0 mm 1 m/S 754 mmHg 82%
    20:00 +7°C° 0 mm 1 m/S 754 mmHg 84%
    21:00 +6°C° 0 mm 0 m/S 754 mmHg 86%
    22:00 +5°C° 0 mm 0 m/S 755 mmHg 88%
    23:00 +5°C° 0 mm 0 m/S 755 mmHg 88%

    29 März, Freitag

    Zeit Temperatur Niederschläge Wind Luftdruck Luftfeuchtigkeit
    00:00 +5°C° 0 mm 0 m/S 755 mmHg 89%
    01:00 +4°C° 0 mm 0 m/S 755 mmHg 90%
    02:00 +5°C° 0 mm 1 m/S 756 mmHg 90%
    03:00 +5°C° 0 mm 1 m/S 756 mmHg 90%
    04:00 +5°C° 0 mm 1 m/S 756 mmHg 91%
    05:00 +5°C° 0 mm 1 m/S 756 mmHg 89%
    06:00 +6°C° 0 mm 1 m/S 756 mmHg 88%
    07:00 +6°C° 0 mm 1 m/S 756 mmHg 86%
    08:00 +7°C° 0 mm 2 m/S 756 mmHg 79%
    09:00 +9°C° 0 mm 2 m/S 756 mmHg 72%
    10:00 +10°C° 0 mm 2 m/S 756 mmHg 65%
    11:00 +11°C° 0 mm 3 m/S 756 mmHg 61%
    12:00 +12°C° 0 mm 3 m/S 755 mmHg 57%
    13:00 +12°C° 0 mm 3 m/S 755 mmHg 53%
    14:00 +13°C° 0 mm 3 m/S 755 mmHg 51%
    15:00 +13°C° 0 mm 3 m/S 754 mmHg 49%
    16:00 +13°C° 0 mm 3 m/S 754 mmHg 48%
    17:00 +13°C° 0 mm 2 m/S 754 mmHg 53%
    18:00 +10°C° 0 mm 2 m/S 754 mmHg 58%
    19:00 +9°C° 0 mm 2 m/S 754 mmHg 63%
    20:00 +8°C° 0 mm 2 m/S 754 mmHg 66%
    21:00 +8°C° 0 mm 2 m/S 754 mmHg 68%
    22:00 +7°C° 0 mm 2 m/S 754 mmHg 71%
    23:00 +7°C° 0 mm 2 m/S 754 mmHg 73%

    30 März, Samstag

    Zeit Temperatur Niederschläge Wind Luftdruck Luftfeuchtigkeit
    00:00 +7°C° 0 mm 2 m/S 753 mmHg 75%
    01:00 +6°C° 0 mm 2 m/S 753 mmHg 77%
    02:00 +6°C° 0 mm 2 m/S 753 mmHg 79%
    03:00 +6°C° 0 mm 2 m/S 753 mmHg 81%
    04:00 +6°C° 0 mm 2 m/S 753 mmHg 83%
    05:00 +6°C° 0 mm 2 m/S 753 mmHg 81%
    06:00 +7°C° 0 mm 2 m/S 753 mmHg 79%
    07:00 +7°C° 0 mm 2 m/S 753 mmHg 78%
    08:00 +9°C° 0 mm 2 m/S 752 mmHg 72%
    09:00 +12°C° 0 mm 2 m/S 752 mmHg 67%
    10:00 +14°C° 0 mm 2 m/S 752 mmHg 61%
    11:00 +15°C° 0 mm 2 m/S 751 mmHg 57%
    12:00 +16°C° 0 mm 2 m/S 751 mmHg 53%
    13:00 +17°C° 0 mm 2 m/S 750 mmHg 48%
    14:00 +17°C° 0 mm 2 m/S 750 mmHg 47%
    15:00 +18°C° 0 mm 1 m/S 749 mmHg 46%
    16:00 +19°C° 0 mm 1 m/S 748 mmHg 45%
    17:00 +16°C° 0 mm 1 m/S 748 mmHg 50%
    18:00 +14°C° 0 mm 1 m/S 748 mmHg 56%
    19:00 +13°C° 0 mm 1 m/S 747 mmHg 61%
    20:00 +12°C° 0 mm 1 m/S 747 mmHg 64%
    21:00 +11°C° 0 mm 1 m/S 747 mmHg 66%
    22:00 +11°C° 0 mm 1 m/S 747 mmHg 69%
    23:00 +10°C° 0 mm 1 m/S 746 mmHg 72%
    Mehr zeigen